Rantoul, IL

8:13 PM CDT on April 24, 2018 (GMT -0500)
Rantoul

Weather History for KTIP - October, 2012

Change the Weather History Date:

Friday, October 5, 2012

  Actual Average (KCMI) Record (KCMI)
Temperature  
Mean Temperature 46 °F -  
Max Temperature 52 °F 68 °F 90 °F (2007)
Min Temperature 39 °F 43 °F 30 °F (1999)
Degree Days  
Heating Degree Days 20    
Moisture  
Dew Point 43 °F    
Average Humidity 89    
Maximum Humidity 97    
Minimum Humidity 75    
Precipitation  
Precipitation 0.66 in - - ()
Sea Level Pressure  
Sea Level Pressure 30.17 in    
Wind  
Wind Speed 7 mph (WNW)    
Max Wind Speed 14 mph    
Max Gust Speed 23 mph    
Visibility 10 miles    
Events Rain , Thunderstorm    
Averages and records for this station are not official NWS values.
T = Trace of Precipitation, MM = Missing Value Source: NWS Daily Summary

Daily Weather History Graph

Daily Weather History Graph

Search for Another Location

Airport or City:

Astronomy

Oct. 05, 2012 Rise Set
Actual Time 6:53 AM CDT 6:27 PM CDT
Civil Twilight 6:26 AM CDT 6:54 PM CDT
Nautical Twilight 5:54 AM CDT 7:26 PM CDT
Astronomical Twilight 5:23 AM CDT 7:57 PM CDT
Moon 9:50 PM CDT (10/5) 12:01 PM CDT (10/5)
Length of Visible Light 12h 28m
Length of Day
11h 34m
Waning Gibbous, 74% of the Moon is Illuminated
Oct 5
Waning Gibbous
Oct 8
Last Quarter
Oct 15
New
Oct 21
First Quarter
Oct 29
Full

Hourly Weather History & Observations

Time (CDT) Temp. Windchill Dew Point Humidity Pressure Visibility Wind Dir Wind Speed Gust Speed Precip Events Conditions
12:15 AM 52.2 °F - 49.6 °F 91% 30.17 in 10.0 mi WNW 6.9 mph - N/A   Mostly Cloudy
12:35 AM 52.3 °F - 50.0 °F 92% 30.17 in 10.0 mi WNW 6.9 mph - N/A   Scattered Clouds
12:55 AM 52.7 °F - 49.5 °F 89% 30.17 in 10.0 mi WNW 6.9 mph - N/A Rain Light Rain
1:15 AM 52.7 °F - 49.3 °F 88% 30.18 in 10.0 mi West 6.9 mph - N/A   Scattered Clouds
1:35 AM 52.0 °F - 49.3 °F 90% 30.18 in 7.0 mi WNW 5.8 mph - 0.03 in Rain Rain
1:55 AM 51.3 °F - 48.6 °F 90% 30.18 in 10.0 mi NW 10.4 mph - 0.05 in Rain Light Rain
2:15 AM 50.4 °F - 48.2 °F 92% 30.22 in 10.0 mi WNW 13.8 mph - 0.01 in Rain Rain
2:35 AM 50.0 °F - 47.8 °F 92% 30.22 in 10.0 mi WNW 12.7 mph 23.0 mph 0.03 in Rain Rain
2:55 AM 49.1 °F - 46.4 °F 90% 30.16 in 7.0 mi North 10.4 mph - 0.08 in Rain Rain
3:15 AM 48.2 °F - 46.0 °F 92% 30.21 in 5.0 mi WNW 12.7 mph - 0.07 in Rain , Thunderstorm Heavy Thunderstorms and Rain
3:35 AM 47.5 °F - 46.2 °F 95% 30.19 in 5.0 mi NW 8.1 mph - 0.18 in Rain , Thunderstorm Rain
3:55 AM 47.5 °F - 46.6 °F 97% 30.21 in 7.0 mi WNW 8.1 mph - 0.21 in Rain Light Rain
4:15 AM 47.7 °F - 46.4 °F 95% 30.19 in 10.0 mi NW 5.8 mph - 0.01 in Rain , Thunderstorm Light Thunderstorms and Rain
4:35 AM 47.7 °F - 45.9 °F 93% 30.19 in 10.0 mi NW 6.9 mph - 0.01 in Rain Light Rain
4:55 AM 47.5 °F - 45.5 °F 93% 30.20 in 10.0 mi WNW 4.6 mph - 0.01 in Rain Rain
5:15 AM 47.3 °F - 45.7 °F 94% 30.22 in 7.0 mi West 8.1 mph - 0.03 in Rain Rain
5:35 AM 46.8 °F - 45.5 °F 95% 30.18 in 7.0 mi North 5.8 mph - 0.08 in Rain Light Rain
5:55 AM 46.4 °F 43.5 °F 44.2 °F 92% 30.19 in 10.0 mi NW 5.8 mph - 0.08 in Rain Light Rain
6:15 AM 46.0 °F 44.8 °F 44.4 °F 94% 30.19 in 7.0 mi NNW 3.5 mph - 0.03 in Rain Rain
6:35 AM 46.4 °F 44.3 °F 44.6 °F 93% 30.18 in 10.0 mi NW 4.6 mph - 0.04 in Rain Rain
6:55 AM 46.0 °F 44.8 °F 44.6 °F 95% 30.18 in 10.0 mi NW 3.5 mph - 0.05 in Rain Rain
7:15 AM 45.9 °F 43.6 °F 44.6 °F 95% 30.18 in 10.0 mi NW 4.6 mph - 0.02 in Rain Rain
7:35 AM 45.9 °F 44.6 °F 44.8 °F 96% 30.19 in 10.0 mi West 3.5 mph - 0.04 in Rain Light Rain
7:55 AM 45.9 °F 42.9 °F 44.6 °F 95% 30.19 in 10.0 mi WNW 5.8 mph - 0.04 in Rain Light Rain
8:15 AM 46.4 °F 42.4 °F 44.8 °F 94% 30.21 in 10.0 mi WNW 8.1 mph - N/A   Mostly Cloudy
8:35 AM 46.6 °F - 44.8 °F 93% 30.22 in 10.0 mi West 5.8 mph - N/A   Overcast
8:55 AM 46.6 °F - 44.8 °F 93% 30.20 in 10.0 mi WNW 6.9 mph - 0.01 in Rain Light Rain
9:15 AM 46.6 °F - 45.1 °F 95% 30.18 in 10.0 mi NNW 3.5 mph - 0.01 in Rain Light Rain
9:35 AM 47.3 °F - 44.1 °F 88% 30.18 in 10.0 mi NW 5.8 mph - 0.01 in   Light Drizzle
9:55 AM 47.5 °F - 44.2 °F 89% 30.19 in 10.0 mi NW 6.9 mph - 0.01 in   Overcast
10:15 AM 47.7 °F - 44.4 °F 89% 30.19 in 10.0 mi NW 9.2 mph - N/A   Overcast
10:35 AM 47.3 °F - 43.2 °F 86% 30.19 in 10.0 mi WNW 6.9 mph - N/A   Overcast
10:55 AM 47.3 °F - 42.4 °F 83% 30.20 in 10.0 mi WNW 6.9 mph - N/A   Overcast
11:15 AM 48.2 °F - 42.8 °F 82% 30.19 in 10.0 mi WNW 4.6 mph - N/A   Overcast
11:35 AM 47.3 °F - 39.7 °F 75% 30.19 in 10.0 mi NNW 8.1 mph - N/A   Overcast
11:55 AM 46.8 °F - 41.4 °F 81% 30.18 in 10.0 mi NW 11.5 mph 17.3 mph N/A Rain Light Rain
12:15 PM 47.1 °F - 40.8 °F 79% 30.17 in 10.0 mi NNW 4.6 mph - N/A   Overcast
12:35 PM 46.2 °F 43.3 °F 39.2 °F 76% 30.17 in 10.0 mi NW 5.8 mph - 0.01 in Rain Light Rain
12:55 PM 46.6 °F - 41.2 °F 81% 30.18 in 10.0 mi WNW 10.4 mph - 0.01 in   Overcast
1:35 PM 46.4 °F 43.5 °F 40.1 °F 79% 30.16 in 10.0 mi NW 5.8 mph - N/A   Overcast
1:55 PM 46.4 °F 42.9 °F 39.7 °F 78% 30.16 in 10.0 mi NW 6.9 mph - N/A   Overcast
2:15 PM 46.4 °F 43.5 °F 40.1 °F 79% 30.14 in 10.0 mi NNW 5.8 mph - N/A Rain Rain
2:35 PM 46.4 °F 42.9 °F 40.3 °F 79% 30.13 in 10.0 mi NW 6.9 mph - 0.01 in   Mostly Cloudy
2:55 PM 45.9 °F 41.7 °F 40.3 °F 81% 30.13 in 10.0 mi NW 8.1 mph 17.3 mph 0.01 in   Overcast
3:15 PM 45.5 °F 43.2 °F 40.8 °F 84% 30.14 in 5.0 mi WNW 4.6 mph - 0.02 in Rain Rain
3:35 PM 45.1 °F 42.0 °F 41.2 °F 86% 30.13 in 10.0 mi WNW 5.8 mph - 0.03 in Rain Light Rain
3:55 PM 45.5 °F 43.2 °F 41.4 °F 85% 30.14 in 10.0 mi WNW 4.6 mph - 0.03 in   Overcast
4:15 PM 45.5 °F 41.3 °F 42.1 °F 88% 30.15 in 10.0 mi West 8.1 mph - N/A Rain Light Rain
4:35 PM 45.7 °F 41.0 °F 42.6 °F 89% 30.16 in 10.0 mi West 9.2 mph - 0.01 in Rain Light Rain
4:55 PM 45.7 °F 41.5 °F 42.6 °F 89% 30.14 in 10.0 mi WNW 8.1 mph - 0.01 in Rain Light Rain
5:15 PM 45.5 °F 40.3 °F 41.9 °F 87% 30.15 in 10.0 mi WNW 10.4 mph - N/A Rain Light Rain
5:35 PM 45.5 °F 40.8 °F 42.1 °F 88% 30.13 in 10.0 mi WNW 9.2 mph - N/A Rain Light Rain
6:15 PM 44.8 °F 39.9 °F 42.1 °F 90% 30.15 in 7.0 mi West 9.2 mph - 0.02 in Rain Rain
6:35 PM 44.6 °F 40.2 °F 41.4 °F 88% 30.14 in 10.0 mi WNW 8.1 mph - 0.03 in Rain Light Rain
6:55 PM 43.9 °F 40.5 °F 41.2 °F 90% 30.15 in 10.0 mi West 5.8 mph - 0.05 in Rain Light Rain
7:15 PM 43.9 °F 40.5 °F 41.9 °F 93% 30.14 in 10.0 mi WNW 5.8 mph - N/A Rain Light Rain
7:35 PM 44.1 °F 42.5 °F 41.5 °F 91% 30.12 in 10.0 mi West 3.5 mph - 0.01 in Rain Light Rain
7:55 PM 43.9 °F 41.3 °F 41.9 °F 93% 30.13 in 10.0 mi West 4.6 mph - 0.01 in   Scattered Clouds
8:15 PM 43.9 °F 40.5 °F 42.1 °F 93% 30.13 in 10.0 mi West 5.8 mph - N/A   Scattered Clouds
8:35 PM 43.0 °F 40.3 °F 41.5 °F 95% 30.12 in 10.0 mi West 4.6 mph - N/A   Scattered Clouds
8:55 PM 42.8 °F 40.1 °F 41.0 °F 93% 30.13 in 10.0 mi West 4.6 mph - N/A   Clear
9:15 PM 42.3 °F 37.9 °F 40.1 °F 92% 30.14 in 10.0 mi West 6.9 mph - N/A   Clear
9:35 PM 42.8 °F 38.6 °F 40.5 °F 91% 30.13 in 10.0 mi West 6.9 mph - N/A   Mostly Cloudy
9:55 PM 42.1 °F 37.7 °F 40.1 °F 93% 30.14 in 10.0 mi West 6.9 mph - N/A   Scattered Clouds
10:15 PM 42.8 °F 38.0 °F 39.2 °F 87% 30.14 in 10.0 mi West 8.1 mph - N/A   Clear
10:35 PM 42.3 °F 37.3 °F 39.0 °F 88% 30.14 in 10.0 mi West 8.1 mph - N/A   Mostly Cloudy
10:55 PM 41.4 °F 36.2 °F 37.8 °F 87% 30.14 in 10.0 mi West 8.1 mph - N/A   Scattered Clouds
11:15 PM 40.3 °F 35.5 °F 37.0 °F 88% 30.15 in 10.0 mi West 6.9 mph - N/A   Clear
11:35 PM 39.7 °F 34.9 °F 36.3 °F 88% 30.15 in 10.0 mi West 6.9 mph - N/A   Clear
11:55 PM 39.2 °F 34.2 °F 36.0 °F 88% 30.15 in 10.0 mi West 6.9 mph - N/A   Clear